Dewpoint
62 62 63 64 63 63 63 62 60 59 58 56 56 55 55 52 51 51 51 50 50 49 50 50 52 55 57 58 58 57 51 46
60 59 58 57 58 61 60 58 57 56 56 56 56 55 51 49 50 49 49 49 47 49 50 54 52 52 55 55 56 51 42 42
58 57 56 55 54 56 56 55 55 55 54 55 56 47 48 45 48 48 47 54 49 52 53 51 50 50 50 53 50 43 43 42
57 56 55 53 52 52 51 53 52 50 48 48 49 43 42 45 46 49 52 51 50 50 50 49 48 45 44 47 44 44 44 43
57 55 54 49 48 50 50 49 49 48 47 45 46 45 45 45 44 43 41 48 43 44 44 43 43 44 44 43 44 44 44 44
58 55 52 51 51 49 48 48 48 46 45 47 46 45 44 42 42 41 41 44 42 43 44 43 44 44 44 43 44 44 44 44
56 54 53 50 49 49 47 48 46 46 45 45 46 43 43 42 41 42 42 42 41 42 42 43 43 43 43 43 43 43 43 44
55 52 52 49 48 46 46 46 46 45 45 44 45 43 42 41 42 42 41 42 42 42 42 42 42 42 42 42 41 40 40 41
54 52 50 49 47 45 44 45 44 44 44 43 43 42 41 41 43 42 42 42 42 42 42 42 41 41 40 39 39 39 40 41
51 51 50 48 46 45 44 45 44 43 43 43 42 42 41 42 42 41 42 43 42 41 41 41 39 40 37 37 38 39 38 39
48 49 50 49 46 43 43 42 42 43 43 42 41 41 42 42 42 41 42 42 41 40 39 39 38 37 34 36 37 36 39 35
46 48 49 47 46 42 43 40 41 40 40 41 40 40 40 41 41 40 41 41 39 39 37 36 37 34 33 34 34 38 34 35
46 48 47 44 41 40 39 38 38 38 38 39 39 39 39 38 39 39 40 39 38 36 36 35 35 34 34 33 34 35 32 34
45 46 44 44 41 39 37 36 37 37 39 38 38 38 38 37 38 38 38 37 37 35 35 33 34 34 31 32 30 32 32 32
44 44 42 42 40 38 37 37 37 37 36 36 37 38 38 38 38 37 37 37 36 34 34 32 30 32 31 30 28 27 29 32
43 43 41 40 39 38 34 32 33 36 36 36 37 36 36 37 37 36 36 36 35 34 35 32 30 29 31 31 30 31 28 28
43 42 41 40 38 35 34 33 35 36 36 35 36 34 34 35 36 35 35 35 34 33 34 32 30 29 29 29 29 31 31 30
42 41 40 40 37 36 35 35 34 33 35 35 35 34 33 34 34 34 34 33 33 33 33 32 30 29 29 29 30 31 30 31
41 40 39 39 37 36 37 32 32 32 33 35 36 33 32 31 32 32 32 32 32 33 31 31 31 29 28 28 31 31 32 31
40 39 38 37 39 38 35 32 33 34 34 33 34 32 31 31 32 31 31 30 30 32 30 30 32 30 27 28 30 32 33 33
Lifted_Index
-0 -1 -1 -1 -1 -0 1 2 4 6 7 8 8 9 10 11 11 11 11 11 11 11 11 10 10 9 9 9 9 10 10 11
-0 -1 -1 -1 -1 1 2 4 6 7 8 8 9 10 11 11 12 11 11 11 11 11 11 10 11 10 10 10 10 11 11 11
-0 -1 -1 -1 0 2 5 7 8 9 9 9 10 11 12 12 12 12 11 11 11 11 11 11 12 12 12 11 12 12 13 12
-0 -1 -1 -1 1 4 6 8 9 10 10 10 11 12 13 13 13 12 12 11 12 12 12 12 13 13 13 13 13 13 13 13
1 -0 -1 0 3 5 8 9 10 11 11 11 12 12 13 13 13 13 13 13 13 13 13 14 14 14 14 14 14 14 14 14
1 0 0 2 4 7 9 10 11 11 12 12 12 12 13 13 14 14 14 14 14 14 14 14 14 14 14 14 14 14 14 14
1 0 1 3 6 8 9 10 11 11 12 12 13 13 13 14 14 14 14 14 14 15 15 15 15 15 15 15 15 15 15 14
0 0 1 4 7 8 8 9 10 11 12 13 13 14 14 14 14 14 15 15 15 15 15 15 15 15 15 16 15 15 14 14
-0 0 2 5 7 8 8 9 10 11 12 13 14 14 14 14 14 14 15 15 15 15 15 15 15 15 15 16 16 15 14 14
-1 0 3 5 7 8 9 10 11 12 13 14 14 14 14 13 14 14 15 15 15 15 15 15 14 14 15 16 16 15 14 14
-0 1 3 5 7 9 10 10 11 12 13 14 14 14 13 13 14 14 15 15 15 15 15 14 14 14 15 16 16 15 14 14
1 1 3 5 8 9 10 11 11 12 13 13 14 14 13 13 13 14 14 14 14 15 15 15 15 15 15 15 15 14 14 14
1 1 3 6 8 9 10 10 11 11 12 13 13 14 13 13 13 13 14 14 14 15 15 15 15 15 15 14 14 13 13 13
0 1 3 6 8 9 10 10 11 11 12 13 13 13 13 13 13 13 13 14 14 15 15 15 15 15 15 14 13 12 12 12
0 1 3 6 8 10 11 11 11 11 12 12 13 13 13 13 13 13 14 14 15 15 15 15 15 15 15 15 13 13 12 12
0 1 3 6 9 10 10 10 10 10 11 11 12 13 13 13 13 14 14 14 15 15 15 15 15 15 15 15 15 14 12 12
1 1 3 6 9 10 10 10 10 10 10 10 11 12 13 13 13 14 14 14 15 15 15 15 15 15 15 15 15 14 13 12
1 2 3 6 8 9 10 10 10 10 9 9 10 11 12 12 13 13 14 15 15 15 15 15 15 16 15 15 14 13 12 11
1 2 3 6 8 9 10 10 10 10 9 9 9 10 11 11 13 13 14 15 15 15 15 16 16 16 16 15 14 13 11 9
1 2 4 6 8 9 10 10 10 10 9 9 9 10 10 12 13 14 15 15 16 15 15 16 16 16 16 15 15 13 10 9